Rome, NY

12:58 PM EDT on September 29, 2016 (GMT -0400)
Griffiss

Weather History for KRME - October, 2013

Change the Weather History Date:

Tuesday, October 29, 2013

  Actual Average Record
Temperature  
Mean Temperature 32 °F -  
Max Temperature 44 °F 52 °F 73 °F (1989)
Min Temperature 21 °F 33 °F 16 °F (1969)
Degree Days  
Heating Degree Days 32    
Moisture  
Dew Point 21 °F    
Average Humidity 66    
Maximum Humidity 92    
Minimum Humidity 35    
Precipitation  
Precipitation 0.00 in - - ()
Sea Level Pressure  
Sea Level Pressure 30.44 in    
Wind  
Wind Speed 1 mph (SE)    
Max Wind Speed 7 mph    
Max Gust Speed -    
Visibility 10 miles    
Events      
Averages and records for this station are not official NWS values.
T = Trace of Precipitation, MM = Missing Value Source: NWS Daily Summary

Daily Weather History Graph

Daily Weather History Graph

Search for Another Location

Airport or City:

Trip Planner

Search our weather history database for the weather conditions in past years. The results will help you decide how hot, cold, wet, or windy it might be!

Date:

Astronomy

Oct. 29, 2013 Rise Set
Actual Time 7:33 AM EDT 5:56 PM EDT
Civil Twilight 7:03 AM EDT 6:26 PM EDT
Nautical Twilight 6:30 AM EDT 6:59 PM EDT
Astronomical Twilight 5:56 AM EDT 7:32 PM EDT
Moon 2:12 AM EDT 3:16 PM EDT
Length of Visible Light 11h 22m
Length of Day
10h 23m
Waning Crescent, 25% of the Moon is Illuminated
Oct 29
Waning Crescent
Nov 3
New
Nov 10
First Quarter
Nov 17
Full
Nov 25
Last Quarter

Hourly Weather History & Observations

Time (EDT) Temp. Windchill Dew Point Humidity Pressure Visibility Wind Dir Wind Speed Gust Speed Precip Events Conditions
12:53 AM 28.9 °F - 19.9 °F 69% 30.41 in 10.0 mi Calm Calm - N/A   Clear
1:53 AM 26.1 °F - 21.0 °F 81% 30.42 in 10.0 mi Calm Calm - N/A   Clear
2:53 AM 24.1 °F - 19.9 °F 84% 30.43 in 10.0 mi Calm Calm - N/A   Clear
3:53 AM 24.1 °F 19.7 °F 19.9 °F 84% 30.45 in 10.0 mi NE 3.5 mph - N/A   Clear
4:53 AM 23.0 °F - 19.9 °F 88% 30.46 in 10.0 mi Calm Calm - N/A   Clear
5:53 AM 21.9 °F - 19.9 °F 92% 30.47 in 10.0 mi Calm Calm - N/A   Clear
6:53 AM 21.9 °F - 19.0 °F 89% 30.48 in 10.0 mi Calm Calm - N/A   Clear
7:53 AM 23.0 °F - 19.9 °F 88% 30.49 in 10.0 mi Calm Calm - N/A   Clear
8:53 AM 26.1 °F - 21.9 °F 84% 30.51 in 10.0 mi Calm Calm - N/A   Clear
9:53 AM 30.0 °F - 24.1 °F 79% 30.51 in 10.0 mi Calm Calm - N/A   Clear
10:53 AM 34.0 °F - 24.1 °F 67% 30.51 in 10.0 mi Calm Calm - N/A   Clear
11:53 AM 37.9 °F - 24.1 °F 57% 30.50 in 10.0 mi Calm Calm - N/A   Clear
12:53 PM 41.0 °F - 19.9 °F 43% 30.46 in 10.0 mi Calm Calm - N/A   Clear
1:53 PM 42.1 °F - 19.0 °F 40% 30.45 in 10.0 mi Calm Calm - N/A   Clear
2:53 PM 43.0 °F - 18.0 °F 37% 30.43 in 10.0 mi Calm Calm - N/A   Clear
3:53 PM 44.1 °F 42.5 °F 18.0 °F 35% 30.41 in 10.0 mi SSE 3.5 mph - N/A   Clear
4:53 PM 43.0 °F 38.8 °F 18.0 °F 37% 30.40 in 10.0 mi SSW 6.9 mph - N/A   Clear
5:53 PM 39.9 °F 36.7 °F 15.1 °F 36% 30.41 in 10.0 mi SW 4.6 mph - N/A   Clear
6:53 PM 33.1 °F 30.0 °F 19.9 °F 59% 30.42 in 10.0 mi NNE 3.5 mph - N/A   Clear
7:53 PM 33.1 °F - 23.0 °F 66% 30.42 in 10.0 mi Calm Calm - N/A   Clear
8:53 PM 32.0 °F - 24.1 °F 73% 30.40 in 10.0 mi Calm Calm - N/A   Clear
9:53 PM 33.1 °F - 23.0 °F 66% 30.40 in 10.0 mi Calm Calm - N/A   Clear
10:53 PM 34.0 °F 28.8 °F 23.0 °F 64% 30.38 in 10.0 mi East 5.8 mph - N/A   Partly Cloudy
11:53 PM 34.0 °F 31.0 °F 24.1 °F 67% 30.35 in 10.0 mi SE 3.5 mph - N/A   Mostly Cloudy